Location: Newark
(37.9128°N, 122.4756°W)
Time: 11:57:31
(UTC+00:00)

ISS - Visible Passes

Search period start: 20 November 2019 00:00
Search period end: 30 November 2019 00:00
Orbit: 412 x 421 km, 51.6° (Epoch: 20 November)

Date Brightness Start Highest point End Pass type
(mag) Time Alt. Az. Time Alt. Az. Time Alt. Az.
20 Nov -1.6 01:57:56 10° SSE 01:59:31 13° SE 01:59:50 13° ESE visible
20 Nov -0.4 03:32:35 10° WSW 03:32:47 11° WSW 03:32:47 11° WSW visible
21 Nov -3.1 02:44:11 10° SW 02:46:47 51° SSW 02:46:47 51° SSW visible
22 Nov -3.1 01:56:03 10° SSW 01:59:11 39° SE 02:00:42 24° E visible
22 Nov -0.4 03:33:13 10° W 03:33:38 12° W 03:33:38 12° W visible
23 Nov -2.6 02:44:21 10° WSW 02:47:27 36° NW 02:47:27 36° NW visible
24 Nov -3.5 01:55:42 10° WSW 01:59:01 63° NW 02:01:11 20° NE visible
25 Nov -1.5 02:45:16 10° WNW 02:47:39 18° NNW 02:47:45 18° NNW visible
26 Nov -2.0 01:56:12 10° W 01:59:02 25° NNW 02:01:20 13° NNE visible
27 Nov -0.9 02:47:00 10° NNW 02:47:46 11° NNW 02:47:46 11° NNW visible
28 Nov -1.3 01:57:23 10° NW 01:59:14 14° NNW 02:01:04 10° NNE visible
